Temp
20 21 21 21 22 22 23 23 23 23 24 24 24 24 25 25 25 25 26 26 26 26 25 24 24 25 22 24 23 19 18 20 24 23 24 26 26 24 24 24 25 25 24 24 22
20 21 21 22 22 23 23 23 23 24 24 24 24 25 25 26 27 27 27 27 26 26 25 24 24 24 21 20 19 19 19 24 27 25 23 26 26 25 24 24 23 24 24 24 23
21 21 21 22 22 22 23 23 24 24 25 25 25 25 26 27 27 28 27 28 27 25 23 24 26 24 22 21 21 22 22 26 25 27 26 27 25 25 23 22 25 23 24 25 24
21 21 21 22 22 22 23 23 24 24 25 25 25 26 26 27 27 28 28 28 26 23 24 26 25 22 20 20 21 20 23 25 27 29 28 27 24 24 24 26 26 25 25 25 24
21 21 22 22 22 23 23 24 24 24 25 25 26 26 27 27 29 28 28 28 25 25 26 27 27 20 21 22 22 22 26 27 27 27 30 26 25 26 24 25 25 25 24 25 25
21 22 22 22 22 22 23 24 24 24 25 25 26 26 26 25 29 29 29 27 26 26 26 28 28 24 20 24 22 24 24 25 27 28 29 28 26 27 26 25 24 24 24 25 25
22 22 22 22 22 23 23 23 24 24 25 25 26 26 27 29 30 29 29 28 27 28 27 27 26 25 22 22 25 23 23 25 27 28 30 29 27 27 26 25 24 24 25 25 25
22 22 22 22 22 23 23 23 24 24 25 25 26 26 28 30 30 29 29 28 26 27 27 26 24 24 22 25 24 25 25 24 29 27 29 27 24 24 26 26 25 25 25 25 25
22 22 22 22 22 22 22 23 23 24 24 25 25 25 28 29 30 30 29 30 29 26 26 26 23 23 22 22 24 23 22 27 27 28 27 23 23 24 27 26 25 25 25 25 25
22 22 23 23 23 22 22 23 23 23 23 24 24 24 29 30 31 30 30 30 30 26 23 23 22 20 21 20 24 25 24 26 26 28 27 23 22 27 28 27 26 25 26 26 26
22 23 23 23 23 23 23 24 23 23 24 27 28 28 30 31 31 31 31 30 30 30 25 25 24 21 23 24 23 24 24 23 25 27 28 24 24 25 27 26 26 25 26 26 26
23 23 23 23 23 24 24 25 26 26 25 27 28 27 30 30 29 31 31 30 29 27 27 24 23 24 25 24 24 24 22 25 28 31 28 25 24 27 24 24 26 26 26 26 26
23 23 24 24 24 24 24 26 27 26 25 27 29 28 30 30 30 31 31 31 28 27 27 25 25 25 27 28 28 26 24 27 29 30 27 26 24 24 25 25 26 26 26 26 26
23 24 24 24 24 25 26 26 27 27 18 23 27 29 30 30 29 32 32 31 28 27 26 25 25 25 25 27 29 26 29 30 30 28 25 27 23 24 25 25 25 25 27 27 27
23 24 24 24 25 25 26 26 27 27 23 28 28 32 32 30 30 32 32 32 27 27 28 27 25 25 27 27 28 28 31 29 29 28 27 27 24 24 25 26 25 26 27 27 27
23 24 24 24 25 25 26 26 26 20 23 29 30 30 30 29 30 31 32 32 32 27 27 26 30 28 27 28 28 30 28 28 26 23 24 25 25 24 25 27 26 27 27 27 27
24 24 24 25 26 25 26 26 20 21 26 27 29 28 28 28 28 28 28 28 26 26 24 27 28 28 30 29 28 27 25 23 24 23 24 24 25 25 28 27 29 29 28 28 28
25 25 25 25 26 25 25 21 23 26 26 27 27 27 27 26 27 27 27 26 28 26 21 25 26 29 29 30 28 26 24 22 25 23 24 24 26 27 29 29 30 31 28 27 28
25 25 26 26 25 26 25 19 23 26 27 25 25 24 24 25 27 25 25 24 25 24 26 23 26 27 29 29 29 27 26 26 25 24 23 24 26 27 28 28 27 29 28 28 29
25 26 27 27 26 26 20 20 26 28 28 24 24 25 24 23 24 23 23 26 26 25 24 24 24 25 26 27 28 28 27 24 24 26 27 24 26 24 28 27 28 26 24 26 27
25 26 27 27 27 26 20 20 27 27 28 26 24 24 22 22 23 23 24 26 25 26 25 24 22 23 24 25 25 24 23 23 21 20 23 22 24 23 26 28 26 23 26 28 28
25 20 27 28 25 19 20 25 28 26 27 24 23 22 23 23 23 24 24 24 24 23 23 23 18 19 23 23 24 25 25 20 20 21 20 19 23 26 25 28 26 21 24 30 30
21 24 27 28 19 18 20 24 25 23 21 23 23 22 23 23 22 22 22 23 24 22 21 21 19 17 19 19 21 24 23 23 20 17 21 21 22 28 23 24 27 22 20 23 26
22 17 23 24 22 21 20 22 24 24 22 23 22 21 20 20 19 21 19 23 22 23 23 22 17 18 18 20 21 21 22 23 20 19 20 20 22 24 24 26 26 24 25 26 26
19 16 16 14 18 16 19 20 21 21 22 22 20 20 20 19 17 17 19 17 20 21 20 18 18 19 18 19 21 21 21 21 22 21 22 23 23 24 25 24 26 27 25 24 24
15 14 15 15 18 17 16 19 20 21 22 20 20 20 19 19 20 18 18 18 18 18 17 15 17 18 18 19 19 20 20 21 22 24 23 23 23 23 27 28 28 29 27 27 27
14 15 14 16 16 16 16 19 19 20 21 21 21 20 19 19 21 21 21 20 18 17 17 15 15 15 16 18 18 18 21 22 21 22 21 19 20 21 22 23 27 29 29 27 28
Height
1517 1516 1514 1513 1512 1510 1510 1509 1508 1507 1506 1505 1504 1502 1500 1499 1497 1496 1496 1500 1501 1504 1505 1507 1508 1508 1513 1509 1508 1513 1523 1519 1504 1511 1504 1493 1488 1491 1491 1492 1494 1497 1500 1503 1509
1514 1513 1511 1510 1509 1508 1507 1507 1506 1505 1504 1503 1502 1500 1497 1495 1493 1493 1497 1498 1500 1503 1505 1507 1509 1512 1514 1512 1515 1518 1521 1506 1499 1496 1489 1488 1485 1487 1490 1494 1496 1496 1501 1506 1509
1511 1509 1508 1507 1506 1505 1504 1504 1503 1503 1502 1501 1501 1498 1496 1494 1493 1495 1496 1497 1499 1504 1509 1508 1504 1506 1511 1511 1511 1513 1511 1496 1487 1492 1490 1482 1487 1484 1486 1493 1491 1493 1498 1504 1509
1507 1506 1504 1503 1502 1502 1502 1501 1501 1500 1500 1500 1499 1497 1495 1493 1499 1495 1496 1497 1502 1509 1506 1502 1503 1506 1507 1509 1504 1509 1500 1494 1480 1477 1481 1482 1485 1484 1485 1484 1486 1490 1493 1501 1507
1504 1502 1500 1499 1498 1498 1498 1498 1498 1498 1498 1498 1498 1496 1495 1493 1492 1493 1496 1498 1502 1502 1503 1502 1495 1503 1503 1497 1499 1498 1490 1486 1479 1475 1476 1478 1477 1479 1483 1486 1488 1494 1498 1501 1504
1500 1499 1497 1495 1494 1494 1495 1495 1496 1496 1496 1496 1496 1496 1495 1495 1491 1492 1494 1498 1499 1498 1498 1494 1492 1496 1503 1499 1499 1492 1488 1481 1476 1475 1477 1477 1479 1480 1483 1487 1491 1496 1500 1502 1505
1497 1494 1493 1491 1490 1490 1491 1492 1493 1494 1494 1495 1495 1495 1494 1491 1490 1492 1493 1495 1497 1495 1494 1493 1496 1499 1506 1504 1497 1493 1491 1478 1474 1474 1471 1474 1484 1484 1482 1489 1493 1497 1501 1503 1505
1493 1491 1489 1487 1486 1487 1488 1489 1491 1492 1492 1493 1493 1493 1490 1489 1489 1489 1492 1494 1497 1496 1497 1500 1505 1507 1509 1502 1496 1491 1488 1498 1476 1472 1473 1481 1504 1491 1492 1493 1496 1497 1501 1503 1505
1491 1488 1485 1483 1483 1484 1486 1487 1488 1490 1490 1491 1492 1492 1488 1487 1486 1487 1489 1491 1492 1497 1501 1502 1507 1510 1511 1505 1503 1497 1518 1497 1487 1475 1480 1493 1505 1484 1486 1491 1491 1495 1496 1500 1504
1489 1486 1484 1482 1482 1483 1485 1486 1487 1489 1489 1490 1491 1494 1485 1482 1482 1483 1485 1488 1489 1495 1504 1506 1505 1509 1501 1514 1524 1516 1513 1497 1495 1478 1485 1493 1495 1476 1474 1473 1484 1485 1490 1492 1497
1490 1486 1484 1483 1483 1484 1485 1487 1490 1490 1488 1483 1482 1479 1479 1480 1482 1480 1482 1485 1487 1489 1497 1504 1506 1518 1508 1509 1514 1512 1503 1504 1485 1475 1483 1494 1491 1476 1470 1475 1475 1482 1483 1486 1488
1491 1488 1486 1485 1484 1485 1486 1486 1485 1488 1481 1477 1476 1476 1475 1476 1480 1479 1481 1484 1484 1490 1486 1501 1510 1502 1495 1496 1502 1505 1507 1496 1471 1455 1469 1482 1492 1471 1470 1467 1466 1472 1476 1478 1484
1492 1489 1488 1487 1486 1486 1486 1485 1485 1484 1481 1471 1469 1471 1470 1474 1474 1475 1477 1478 1480 1486 1485 1495 1491 1492 1489 1485 1486 1492 1500 1490 1476 1461 1464 1477 1491 1477 1463 1462 1466 1467 1470 1475 1476
1492 1490 1489 1488 1489 1486 1485 1485 1484 1484 1497 1476 1465 1465 1467 1470 1471 1469 1471 1475 1478 1483 1482 1484 1481 1487 1488 1486 1475 1492 1473 1470 1468 1476 1501 1470 1510 1480 1467 1462 1460 1460 1461 1467 1471
1492 1490 1489 1488 1487 1487 1487 1484 1483 1484 1518 1463 1463 1461 1461 1467 1465 1462 1465 1469 1472 1474 1478 1479 1484 1487 1485 1477 1471 1474 1457 1464 1464 1474 1476 1473 1491 1473 1459 1457 1455 1453 1452 1454 1460
1490 1489 1488 1487 1486 1486 1484 1482 1482 1501 1513 1468 1460 1461 1462 1464 1462 1462 1460 1462 1461 1467 1469 1467 1461 1468 1466 1463 1466 1458 1464 1466 1470 1481 1503 1477 1482 1478 1461 1447 1446 1442 1446 1448 1459
1488 1487 1486 1486 1486 1485 1483 1481 1499 1513 1473 1478 1470 1462 1464 1467 1462 1461 1463 1466 1474 1486 1489 1467 1463 1459 1458 1464 1458 1463 1476 1505 1507 1510 1507 1472 1482 1467 1436 1434 1430 1431 1438 1445 1451
1487 1486 1486 1485 1484 1483 1482 1483 1504 1484 1482 1470 1468 1465 1474 1471 1465 1459 1464 1472 1468 1470 1490 1491 1491 1462 1459 1461 1467 1465 1473 1502 1513 1515 1498 1475 1483 1459 1431 1425 1425 1429 1441 1448 1450
1486 1485 1484 1484 1483 1483 1483 1504 1498 1483 1476 1477 1471 1481 1481 1473 1469 1469 1474 1481 1475 1470 1482 1493 1485 1460 1456 1454 1455 1464 1475 1457 1476 1477 1493 1480 1460 1440 1428 1427 1429 1429 1434 1436 1433
1485 1484 1483 1483 1482 1483 1487 1498 1483 1475 1474 1476 1490 1481 1490 1487 1484 1482 1482 1473 1473 1467 1465 1478 1492 1467 1459 1451 1455 1462 1459 1483 1476 1491 1494 1485 1472 1470 1440 1435 1430 1433 1424 1426 1428
1485 1484 1483 1482 1482 1483 1497 1493 1479 1478 1475 1478 1485 1489 1493 1493 1487 1488 1485 1476 1472 1469 1465 1470 1484 1481 1466 1472 1475 1468 1482 1479 1483 1493 1505 1508 1483 1439 1433 1424 1430 1427 1418 1423 1430
1485 1486 1483 1482 1484 1487 1491 1483 1477 1478 1476 1479 1481 1487 1489 1488 1488 1486 1488 1485 1479 1472 1477 1473 1488 1499 1482 1465 1462 1463 1475 1486 1507 1503 1500 1505 1484 1435 1435 1420 1426 1427 1424 1420 1425
1489 1486 1484 1480 1498 1497 1487 1484 1482 1483 1485 1485 1487 1487 1485 1489 1494 1489 1487 1484 1480 1480 1485 1483 1494 1513 1499 1481 1468 1472 1475 1479 1487 1496 1499 1508 1489 1436 1432 1435 1437 1433 1433 1432 1431
1493 1494 1488 1486 1490 1493 1496 1490 1489 1489 1488 1488 1490 1488 1491 1495 1493 1494 1492 1482 1484 1483 1481 1479 1494 1501 1516 1499 1488 1486 1477 1477 1487 1506 1500 1496 1479 1451 1444 1437 1440 1439 1436 1439 1437
1499 1504 1506 1506 1495 1495 1495 1494 1495 1496 1492 1491 1493 1496 1498 1502 1501 1500 1493 1489 1482 1484 1484 1488 1498 1492 1492 1487 1483 1481 1481 1480 1482 1481 1487 1477 1472 1455 1445 1443 1447 1441 1444 1441 1440
1508 1510 1507 1504 1501 1497 1497 1498 1497 1495 1495 1497 1499 1497 1497 1500 1499 1502 1498 1497 1496 1485 1489 1489 1498 1491 1493 1482 1482 1483 1478 1474 1472 1467 1468 1465 1465 1448 1441 1437 1436 1433 1439 1434 1434
1514 1514 1513 1507 1505 1504 1506 1500 1500 1496 1496 1495 1495 1496 1496 1494 1493 1491 1490 1489 1489 1491 1489 1496 1497 1502 1504 1486 1487 1493 1473 1470 1470 1467 1466 1481 1475 1456 1444 1437 1432 1430 1429 1430 1430
Wind_Speed
13 12 12 10 10 10 9 9 9 10 10 11 11 12 12 11 13 12 8 6 7 4 7 7 8 7 8 3 2 5 3 3 2 6 7 7 5 6 9 18 20 7 22 36 39
15 14 14 12 11 10 10 9 9 9 10 11 12 13 14 16 14 8 6 9 10 11 14 6 5 6 5 3 5 4 3 5 3 8 14 15 16 15 8 9 8 8 28 37 36
15 15 14 15 13 12 11 10 10 10 10 11 12 13 14 17 5 6 7 11 12 13 13 9 12 9 6 8 5 5 5 8 28 23 25 21 5 9 8 4 13 33 38 39 37
15 14 15 14 14 13 12 11 10 10 10 10 11 12 14 10 3 5 8 10 14 19 9 16 21 6 0 2 3 2 17 20 18 19 26 12 14 7 14 6 22 36 45 40 38
15 14 14 14 14 14 12 11 10 10 10 10 10 11 12 9 3 1 6 15 18 18 12 25 14 3 7 6 7 5 5 12 27 29 11 21 14 10 17 13 30 39 40 40 40
16 14 13 13 13 14 12 11 9 10 10 9 9 9 9 4 2 1 7 14 21 18 15 5 7 10 13 2 2 7 20 24 16 15 5 13 10 12 14 34 32 35 34 38 37
16 14 13 12 12 13 12 10 8 9 9 7 7 8 9 8 4 3 5 8 18 16 13 9 8 11 5 5 8 12 8 11 6 4 4 9 6 1 27 30 28 29 30 34 34
17 13 12 12 11 10 10 9 8 8 7 6 6 7 7 5 6 9 4 8 16 11 9 5 8 9 5 12 6 8 3 7 6 9 5 14 4 6 14 24 24 28 29 32 29
18 13 10 10 8 7 6 7 7 7 6 5 4 5 8 3 13 10 11 5 5 19 14 12 16 3 6 5 5 6 3 12 10 7 4 11 5 10 12 17 27 30 32 31 32
18 13 9 5 2 2 4 4 5 5 5 4 6 4 11 15 14 18 15 13 5 19 19 15 5 4 9 3 2 3 6 11 11 7 8 9 10 13 24 26 25 33 34 36 37
18 13 9 6 3 2 2 3 1 2 9 10 7 10 12 16 13 17 18 20 17 14 8 20 5 9 13 5 5 7 16 18 19 26 10 11 10 10 13 9 24 28 32 37 41
15 11 8 6 6 5 3 1 7 6 8 15 21 23 20 17 10 13 19 22 12 7 2 4 6 9 8 7 17 15 18 21 16 11 6 9 10 11 6 11 23 33 32 37 40
12 7 4 5 5 5 6 5 12 12 2 10 16 21 26 10 16 16 10 17 6 5 8 6 8 16 6 3 16 11 17 21 8 14 7 10 4 10 8 14 18 22 32 33 40
9 3 2 4 5 10 12 7 12 11 5 7 6 9 21 20 10 21 20 18 4 10 9 7 15 16 8 8 15 11 17 15 12 4 5 6 5 6 7 13 10 24 29 35 39
8 3 5 4 3 5 9 5 9 9 2 3 5 1 6 21 2 5 17 22 13 11 5 13 14 12 13 13 15 14 15 10 14 8 4 5 5 6 12 15 17 20 27 41 46
7 4 7 5 4 7 9 8 11 5 4 2 3 2 4 6 18 14 8 7 10 6 4 11 10 8 12 9 16 18 9 6 3 3 3 7 3 6 6 10 7 17 28 32 37
5 4 5 7 3 6 9 9 5 4 6 9 2 3 3 4 5 7 9 5 6 4 6 10 11 6 5 3 6 5 3 4 4 4 5 6 1 9 8 11 9 10 26 30 31
5 5 6 3 3 4 11 5 6 2 4 4 3 1 6 4 4 4 2 9 8 2 3 3 9 1 4 1 6 7 6 5 7 5 7 3 5 6 3 10 22 11 13 3 23
5 6 6 2 3 1 3 5 4 1 3 7 8 7 8 8 1 8 5 5 2 4 4 4 5 5 3 3 4 8 9 5 4 2 3 3 7 8 6 8 5 10 12 24 21
5 4 3 3 3 2 5 3 2 2 3 7 5 3 6 8 7 7 8 3 4 7 7 3 3 2 7 8 3 4 5 8 5 2 3 5 3 5 1 6 5 2 14 27 22
6 2 1 2 3 1 2 5 2 10 10 5 6 5 4 4 3 5 5 6 16 6 6 2 4 8 5 4 5 10 6 5 2 3 1 3 6 7 9 6 10 9 26 15 13
5 2 8 1 3 3 2 4 3 4 13 8 5 5 2 3 4 6 7 5 22 16 5 3 4 3 6 8 6 4 5 5 4 7 2 5 5 8 10 8 20 14 24 20 1
10 7 9 7 3 4 7 7 11 7 7 5 7 6 3 5 4 6 7 8 25 13 5 6 3 4 10 8 6 4 4 3 2 2 1 3 6 17 6 10 16 18 16 22 21
7 4 7 11 6 4 7 5 4 12 11 8 5 8 7 7 3 5 9 5 13 9 16 9 2 5 5 7 4 8 13 4 5 3 2 4 7 14 11 7 7 19 30 26 21
9 4 6 4 6 7 2 3 6 6 7 13 7 4 3 4 8 8 6 8 12 7 9 4 3 3 5 6 5 4 9 8 4 7 3 5 6 10 6 2 16 20 26 33 32
7 8 11 8 14 8 6 6 4 4 3 4 4 5 4 1 3 4 3 2 6 5 6 4 3 4 4 8 6 6 9 9 4 3 5 5 4 8 21 20 12 11 17 29 33
17 9 5 7 9 4 6 5 7 4 3 6 5 2 5 4 3 10 14 14 12 6 6 2 3 2 4 5 6 6 5 5 5 3 4 7 9 16 14 11 15 15 8 28 30
Wind_Direction
309 306 305 304 303 304 309 316 321 325 328 330 335 333 330 326 316 297 265 136 75 111 100 111 149 170 177 211 237 64 7 268 240 53 294 196 136 169 119 138 151 206 175 161 161
307 301 298 295 294 294 298 303 310 316 322 327 335 334 337 337 329 315 140 123 100 108 106 63 345 312 109 160 128 141 241 282 11 204 206 217 166 153 148 160 205 160 160 158 162
307 301 294 291 287 287 288 294 300 307 315 324 334 336 338 338 357 73 123 127 114 121 84 55 21 107 105 178 181 174 243 259 281 249 208 193 166 157 142 204 191 152 158 164 168
314 303 295 288 285 281 282 285 292 299 308 320 330 336 338 348 62 107 108 112 125 113 69 27 21 31 188 272 189 202 233 243 285 319 184 179 147 160 181 239 169 163 160 169 180
318 310 299 289 281 276 273 274 281 291 300 314 326 333 341 329 348 137 147 125 138 147 87 25 294 295 264 184 299 220 283 298 303 297 203 154 179 173 203 162 152 162 165 175 181
320 309 300 290 279 270 265 264 267 278 292 310 315 321 324 310 333 301 189 152 158 178 152 163 308 257 284 347 23 295 305 289 292 279 180 174 176 159 199 153 150 163 174 179 186
325 311 300 289 279 268 260 254 253 263 280 297 300 309 299 282 255 292 248 181 175 196 196 231 252 160 336 299 276 271 308 312 358 286 17 105 73 82 153 158 158 167 180 185 191
335 324 309 288 276 265 252 246 236 247 266 278 285 294 264 321 241 245 235 184 188 216 246 258 167 124 280 298 261 334 84 352 328 22 25 25 44 335 140 166 175 174 183 190 198
342 335 320 297 279 264 238 236 225 236 250 246 253 271 266 193 230 244 251 279 201 201 213 166 142 190 312 1 10 9 352 320 331 360 72 61 284 144 155 168 169 179 184 192 204
354 352 354 342 310 233 223 208 217 233 239 227 220 296 244 220 238 238 254 250 278 134 128 146 188 70 290 52 120 285 292 284 275 264 77 137 234 177 165 168 194 183 189 195 206
1 6 20 35 50 81 123 137 227 222 228 222 227 213 244 275 286 239 217 224 234 246 184 194 149 164 238 336 313 309 277 264 268 272 230 166 210 205 198 185 180 199 192 199 207
2 8 30 60 72 83 112 245 18 342 290 262 251 251 249 255 294 248 208 205 216 222 252 76 184 177 157 16 288 245 265 284 280 293 171 162 211 219 225 223 192 193 200 201 207
1 10 42 56 33 15 339 19 10 349 306 284 244 238 235 249 245 238 246 233 192 236 244 206 198 182 172 217 273 241 224 255 248 311 94 119 331 258 228 226 233 208 205 206 202
355 5 47 357 1 356 25 11 2 350 52 276 198 237 227 237 278 251 252 247 191 216 237 234 154 177 212 231 260 263 210 248 302 351 161 193 226 285 247 231 241 218 204 210 204
342 269 265 295 329 4 7 354 334 314 25 203 192 182 213 199 157 266 235 239 225 230 139 251 171 190 229 222 243 254 288 280 286 271 63 326 99 242 217 234 221 220 232 208 202
312 290 261 254 294 359 348 331 324 48 287 291 154 203 141 198 238 254 286 270 252 192 223 245 245 187 213 232 226 258 282 298 11 88 48 240 137 281 205 227 196 191 204 193 201
294 281 264 246 250 336 329 334 51 107 308 337 356 281 204 269 260 197 253 276 195 127 257 277 274 288 183 255 303 209 101 300 332 1 222 197 190 237 269 239 232 189 189 196 201
269 260 271 208 96 320 339 49 52 256 348 291 302 44 119 342 274 235 208 250 19 247 75 176 305 2 339 197 227 289 170 163 213 205 241 68 239 260 219 254 235 259 93 95 205
305 262 297 216 132 21 339 55 210 7 320 338 343 53 352 349 73 20 54 43 27 32 79 51 294 304 61 245 148 320 354 231 164 81 97 232 292 324 18 31 68 117 78 20 336
12 277 322 113 161 236 67 236 315 36 0 52 41 52 8 338 33 27 10 328 341 32 118 314 327 324 306 347 95 87 287 357 358 334 283 282 289 234 294 172 167 96 65 46 33
17 20 25 6 203 207 142 230 261 56 57 61 24 27 9 12 14 354 334 14 355 344 61 101 100 293 12 29 319 348 6 10 146 84 322 305 274 227 210 233 108 87 77 63 58
17 33 19 286 41 27 352 308 318 17 39 40 90 64 33 317 357 2 14 56 9 4 27 335 127 324 258 267 264 218 111 92 84 308 258 166 280 1 288 229 117 123 113 102 131
354 326 19 54 78 342 327 334 46 55 21 32 21 28 6 346 7 40 351 33 27 15 19 326 354 6 343 350 8 40 68 82 168 56 317 71 286 329 360 349 55 123 147 155 177
9 10 355 38 52 74 6 325 77 57 52 40 38 54 23 14 30 317 356 337 18 6 10 25 75 151 196 236 270 317 330 2 115 101 244 235 288 321 347 342 89 131 127 131 137
23 26 16 326 338 340 11 327 53 19 30 33 19 73 69 352 349 356 355 337 342 21 23 70 256 48 264 256 317 314 336 352 333 250 185 257 287 283 296 271 281 157 170 164 155
41 8 347 310 318 337 3 355 41 356 66 8 48 357 44 5 195 269 340 353 263 321 26 352 271 359 302 298 324 306 311 295 266 290 296 291 300 277 307 311 293 316 165 142 139
21 7 340 313 344 31 331 332 50 31 337 4 325 335 314 274 279 291 282 255 239 254 298 261 173 66 265 302 349 337 217 279 283 339 317 40 322 337 325 313 313 313 226 163 151